USA 115 (MILSTAR-1 2)

Last updated on Tue Mar 03 2026 00:02:49 GMT+0000 (Coordinated Universal Time)

1 23712U 95060A 26061.49141941 -.00000031 00000+0 00000+0 0 9996 2 23712 14.0348 4.5392 0004062 336.2684 236.3904 1.00274661 31811
UTC large
Height (km)
Speed (km/s)
/
Latitude / Longitude
Inclination (degrees)
Orbital Period (minutes)
Azimuth
Elevation
Range (km)
Doppler Factor

Next 0 passes for location: London (51.5072 / 0.1276)

Sorry there are no passes over London.